This demonstration page uses our WeatherBlox Daily Observations layout. Learn more.

Left ArrowRight Arrow

41.55636, -103.73856

Hourly Observations for April 12, 2020

Temp ( °F °C ) Dew Point ( °F °C ) Humidity (%) Winds ( mph kmh ) Pressure ( in mb ) Visibility ( mi km ) Precip ( " mm )
12:58 am 00:58 Mostly Cloudy with Heavy Snow 22 -5.4 21 -6.2 94 94 NNE 16 26 29.78 1009 3 5 0.00 0.00
1:58 am 01:58 Mostly Cloudy with Heavy Snow 21 -6 20 -6.9 93 93 NNE 17 28 29.78 1009 5 8 0.00 0.00
2:58 am 02:58 Cloudy with Heavy Snow 20 -6.4 19 -7.4 93 93 NNE 15 24 29.79 1009 7 11 0.00 0.00
3:58 am 03:58 Cloudy with Light Snow 20 -6.7 18 -7.7 93 93 NNE 15 24 29.82 1010 2 3 0.00 0.00
4:58 am 04:58 Cloudy with Light Snow 19 -7.2 17 -8.3 92 92 N 14 22 29.87 1012 10 16 0.00 0.00
5:58 am 05:58 Windy with Snow Likely 19 -7.5 16 -8.7 91 91 N 20 31 29.91 1013 3 5 0.00 0.00
6:58 am 06:58 Cloudy with Light Snow 18 -7.7 16 -9.1 90 90 N 16 26 29.98 1015 3 4 0.00 0.00
7:58 am 07:58 Mostly Cloudy with Light Snow 18 -7.6 16 -9.1 89 89 N 17 28 30.05 1018 7 11 0.00 0.00
8:58 am 08:58 Cloudy with Snow 19 -7.4 16 -8.7 91 91 N 14 22 30.07 1018 1 1 0.00 0.00
9:58 am 09:58 Partly Cloudy with Scattered Snow Showers 19 -7.4 16 -9 88 88 NNE 14 22 30.11 1020 5 8 0.00 0.00
10:58 am 10:58 Partly Cloudy with Isolated Snow Showers 20 -6.8 14 -9.8 79 79 NNE 20 31 30.13 1020 3 5 0.00 0.00
11:58 am 11:58 Mostly Cloudy with Light Snow Showers 21 -6.1 15 -9.7 76 76 N 16 26 30.15 1021 10 16 0.00 0.00
12:58 pm 12:58 Mostly Cloudy with Light Snow Showers 22 -5.8 15 -9.7 74 74 NNE 13 20 30.15 1021 3 4 0.00 0.00
1:58 pm 13:58 Mostly Cloudy with Light Snow Showers 22 -5.6 14 -9.8 73 73 NE 15 24 30.15 1021 5 8 0.00 0.00
2:58 pm 14:58 Mostly Cloudy with Light Snow Showers 23 -4.9 16 -9.1 73 73 NNE 8 13 30.16 1022 10 16 0.00 0.00
3:58 pm 15:58 Mostly Cloudy with Light Rain/Snow 24 -4.3 19 -7.5 79 79 N 12 19 30.15 1021 10 16 0.00 0.00
4:58 pm 16:58 Mostly Cloudy 24 -4.2 16 -8.9 70 70 NNE 8 13 30.17 1022 10 16 0.00 0.00
5:58 pm 17:58 Mostly Cloudy with Light Snow Showers 24 -4.7 17 -8.3 76 76 N 8 13 30.19 1022 10 16 0.00 0.00
6:58 pm 18:58 Partly Cloudy with Light Snow Showers 22 -5.3 18 -7.6 84 84 N 9 15 30.19 1023 10 16 0.00 0.00
7:58 pm 19:58 Partly Cloudy with Scattered Snow Showers 20 -6.4 17 -8.6 85 85 N 9 15 30.22 1023 10 16 0.00 0.00
8:58 pm 20:58 Clear 17 -8.5 11 -11.9 77 77 NNE 7 11 30.27 1025 10 16 0.00 0.00
9:58 pm 21:58 Clear 16 -9.1 11 -11.4 84 84 N 9 15 30.29 1026 10 16 0.00 0.00
10:58 pm 22:58 Clear 13 -10.6 9 -12.9 83 83 N 8 13 30.32 1027 10 16 0.00 0.00
11:58 pm 23:58 Partly Cloudy 10 -12.4 6 -14.6 84 84 WNW 6 9 30.34 1027 10 16 0.00 0.00

Powered by AerisWeather